Location: Heidgraben
(53.7081°N, 9.6576°E)
Time: 08:53:20
(UTC+00:00)

Cosmos 1943 Rocket - Pass Details

Date: 05 July 2020
Orbit: 811 x 845 km, 71.0° (Epoch: 14 August)

Event Time Altitude Azimuth Distance (km) Brightness Sun altitude
Rises 22:51:36 0° 327° (NNW) 3,417 6.6 -13.3°
Reaches altitude 10° 22:54:04 10° 329° (NNW) 2,479 5.8 -13.3°
Maximum altitude 22:59:47 79° 56° (NE) 866 2.3 -13.4°
Enters shadow 23:04:41 14° 143° (SE) 2,174 3.8 -13.5°
